Regional Weather Roundup
Issued by NWS State College, PA

Home | Current Version | Previous Version | Graphics & Text | Print | Product List | Glossary Off
Versions: 1 2 3 4 5 6 7 8 9 10 11 12 13 14 15 16 17 18 19 20 21 22 23 24 25 26 27 28 29 30 31 32 33 34 35 36 37 38 39 40 41 42 43 44 45 46 47 48 49 50

000
ASUS41 KCTP 010610
RWRCTP

REGIONAL WEATHER ROUNDUP
NATIONAL WEATHER SERVICE STATE COLLEGE PA
100 AM EST SUN MAR 01 2015

Note: "fair" indicates few or no clouds below 12,000 feet with no
significant weather and/or obstructions to visibility.

* = STATION THAT DOES NOT REPORT PRECIPITATION /E.G. RAIN...SNOW...ETC/
    THUNDER OR FOG.

PAZ002>004-007>009-013>016-020>023-029>032-010700-
WESTERN PENNSYLVANIA

CITY           SKY/WX    TMP DP  RH WIND       PRES   REMARKS
ERIE           CLOUDY    13   5  70 CALM      30.53F
MEADVILLE        N/A     20  -4  34 CALM      30.47F
FRANKLIN*      CLOUDY    18   0  45 SE9       30.49S WCI   6
NEW CASTLE     LGT SNOW  16   7  67 CALM      30.53S
BEAVER COUNTY  NOT AVBL
BUTLER*        CLOUDY    21   3  45 CALM      30.51F
PITTSBURGH INT CLOUDY    23   3  42 NE3       30.49F
PITTSBURGH     CLOUDY    23  -2  33 NE3       30.48F
INDIANA*       CLOUDY    25   5  42 SE5       30.54S
LATROBE        MOCLDY    25  10  54 CALM      30.51F
WASHINGTON CO* CLOUDY    21  12  68 CALM      30.49F
$$

PAZ004>006-010>012-017>019-024>028-033>037-041-042-045-046-049>053-010700-
CENTRAL PENNSYLVANIA

CITY           SKY/WX    TMP DP  RH WIND       PRES   REMARKS
BRADFORD       CLOUDY    16  -5  39 SE9       30.45F WCI   4
DUBOIS         CLOUDY    18  -2  41 SE12      30.47F WCI   5
CLEARFIELD     MOCLDY    13  -4  46 N6        30.53F WCI   4
JOHNSTOWN      CLOUDY    19   3  49 S8        30.45F WCI   9
ALTOONA        MOCLDY    20   1  43 S5        30.56F WCI  13
STATE COLLEGE  MOCLDY    15  -1  48 CALM      30.58F
WILLIAMSPORT   PTCLDY    11   0  61 CALM      30.68R
SELINSGROVE    PTCLDY     8   4  83 CALM      30.69R
FT INDIANTOWN  PTCLDY     8   2  73 CALM      30.70R
CAPITAL CITY   CLEAR     14   5  67 CALM      30.70R
HARRISBURG     CLEAR     17   6  62 E6        30.70R WCI   9
YORK           FAIR      15   3  59 CALM      30.69R
$$

PAZ038>040-043-044-047-048-054-055-060>062-067>071-010700-
EASTERN PENNSYLVANIA

CITY           SKY/WX    TMP DP  RH WIND       PRES   REMARKS
SCRANTON       PTCLDY    10  -3  55 E7        30.63F WCI  -1
MOUNT POCONO   FAIR       0  -7  72 CALM      30.54F
ALLENTOWN      CLEAR      8   0  69 CALM      30.69F
QUAKERTOWN*    PTCLDY     7   0  72 MISG      30.68F
READING        PTCLDY    13   3  64 NW3       30.70S
LANCASTER      CLEAR     15   6  67 CALM      30.70R
COATESVILLE    CLEAR     18   5  57 CALM      30.68S
POTTSTOWN      CLEAR     13   4  67 CALM      30.71F
BLUE BELL      CLEAR     18  10  73 CALM      30.69F
DOYLESTOWN     CLEAR     13   2  61 CALM      30.68F
WILLOW GROVE   NOT AVBL
NORTH PHILA    CLEAR     20   6  55 CALM      30.73F
PHILADELPHIA   FAIR      23   7  50 CALM      30.73F
$$



USA.gov is the U.S. government's official web portal to all federal, state and local government web resources and services.